Fowler, IL

11:47 AM CST on February 07, 2016 (GMT -0600)
Quincy Regional-Baldwin

Weather History for KUIN - April, 2012

Change the Weather History Date:

Wednesday, April 25, 2012

  Actual Average Record
Temperature  
Mean Temperature 68 °F 56 °F  
Max Temperature 82 °F 67 °F 92 °F (1986)
Min Temperature 55 °F 46 °F 32 °F (1934)
Degree Days  
Heating Degree Days 0 9  
Month to date heating degree days 328  
Since 1 July heating degree days 5388  
Cooling Degree Days 3 1  
Month to date cooling degree days 12  
Year to date cooling degree days 14  
Growing Degree Days 18 (Base 50)    
Moisture  
Dew Point 58 °F    
Average Humidity 67    
Maximum Humidity 88    
Minimum Humidity 48    
Precipitation  
Precipitation 0.00 in 0.13 in 3.20 in (1904)
Month to date precipitation 3.03  
Year to date precipitation 8.89  
Sea Level Pressure  
Sea Level Pressure 29.57 in    
Wind  
Wind Speed 6 mph (SSW)    
Max Wind Speed 13 mph    
Max Gust Speed 33 mph    
Visibility 10 miles    
Events Thunderstorm    
T = Trace of Precipitation, MM = Missing Value Source: NWS Daily Summary

Daily Weather History Graph

Daily Weather History Graph

Search for Another Location

Airport or City:

Trip Planner

Search our weather history database for the weather conditions in past years. The results will help you decide how hot, cold, wet, or windy it might be!

Date:

Astronomy

Apr. 25, 2012 Rise Set
Actual Time 6:12 AM CDT 7:53 PM CDT
Civil Twilight 5:43 AM CDT 8:22 PM CDT
Nautical Twilight 5:08 AM CDT 8:57 PM CDT
Astronomical Twilight 4:31 AM CDT 9:35 PM CDT
Moon 8:57 AM CDT (4/25) No Moon Set
Length of Visible Light 14h 39m
Length of Day
13h 41m
Waxing Crescent, 17% of the Moon is Illuminated
Apr 25
Waxing Crescent
Apr 29
First Quarter
May 5
Full
May 12
Last Quarter
May 20
New

Hourly Weather History & Observations

Time (CDT) Temp. Heat Index Dew Point Humidity Pressure Visibility Wind Dir Wind Speed Gust Speed Precip Events Conditions
12:54 AM 57.9 °F - 51.1 °F 78% 29.61 in 10.0 mi SSW 5.8 mph - N/A   Clear
1:54 AM 59.0 °F - 52.0 °F 78% 29.61 in 10.0 mi SW 3.5 mph - N/A   Clear
2:54 AM 55.9 °F - 51.1 °F 84% 29.59 in 10.0 mi SSW 6.9 mph - N/A   Clear
3:54 AM 59.0 °F - 53.1 °F 81% 29.58 in 10.0 mi South 5.8 mph - N/A   Clear
4:54 AM 59.0 °F - 53.1 °F 81% 29.59 in 10.0 mi South 5.8 mph - N/A   Clear
5:54 AM 57.0 °F - 52.0 °F 83% 29.60 in 10.0 mi South 5.8 mph - N/A   Clear
6:54 AM 60.1 °F - 54.0 °F 80% 29.59 in 10.0 mi South 6.9 mph - N/A   Clear
7:54 AM 63.0 °F - 55.9 °F 78% 29.59 in 10.0 mi South 6.9 mph - N/A   Clear
8:54 AM 68.0 °F - 57.9 °F 70% 29.58 in 10.0 mi South 5.8 mph - N/A   Clear
9:54 AM 73.0 °F - 57.0 °F 57% 29.58 in 10.0 mi SSW 9.2 mph 18.4 mph N/A   Clear
10:54 AM 75.0 °F - 57.0 °F 53% 29.60 in 10.0 mi WSW 5.8 mph - N/A   Clear
11:54 AM 77.0 °F - 59.0 °F 54% 29.58 in 10.0 mi South 8.1 mph - N/A   Clear
12:54 PM 78.1 °F - 57.9 °F 50% 29.55 in 10.0 mi South 12.7 mph - N/A   Clear
1:54 PM 80.6 °F 81.1 °F 59.0 °F 48% 29.54 in 10.0 mi SSE 10.4 mph - N/A   Clear
2:54 PM 79.0 °F - 57.9 °F 48% 29.57 in 10.0 mi West 8.1 mph - N/A   Scattered Clouds
3:54 PM 78.1 °F - 60.1 °F 54% 29.54 in 10.0 mi SSW 6.9 mph - 0.00 in   Clear
4:54 PM 80.1 °F 80.9 °F 60.1 °F 50% 29.53 in 10.0 mi Calm Calm - N/A   Clear
5:54 PM 81.0 °F 81.6 °F 60.1 °F 49% 29.53 in 10.0 mi Calm Calm - 0.00 in   Clear
6:54 PM 79.0 °F - 60.1 °F 52% 29.52 in 10.0 mi SW 9.2 mph - N/A   Clear
7:54 PM 75.0 °F - 60.1 °F 60% 29.53 in 10.0 mi SW 9.2 mph - N/A   Clear
8:36 PM 73.4 °F - 60.8 °F 65% 29.55 in 10.0 mi SSW 5.8 mph - N/A Thunderstorm Clear
8:54 PM 75.2 °F - 60.8 °F 61% 29.55 in 10.0 mi South 6.9 mph - N/A Thunderstorm Thunderstorm
9:23 PM 75.2 °F - 60.8 °F 61% 29.59 in 10.0 mi NE 9.2 mph 33.4 mph N/A Thunderstorm Unknown
9:54 PM 68.0 °F - 62.1 °F 81% 29.58 in 10.0 mi Variable 6.9 mph - 0.00 in Thunderstorm Thunderstorm
10:11 PM 66.2 °F - 62.6 °F 88% 29.59 in 10.0 mi Calm Calm - N/A   Scattered Clouds
10:54 PM 66.9 °F - 59.0 °F 76% 29.58 in 10.0 mi South 3.5 mph - N/A   Clear
11:54 PM 62.1 °F - 57.9 °F 86% 29.60 in 10.0 mi East 4.6 mph - N/A   Clear